Location: ????
(30.1475°N, 31.1342°E)
Time: 11:12:23
(UTC+00:00)

Cosmos 1833 Rocket - Pass Details

Date: 06 April 2023
Orbit: 831 x 841 km, 71.0° (Epoch: 01 June)

Event Time Altitude Azimuth Distance (km) Brightness Sun altitude
Rises 19:20:35 0° 356° (N) 3,395 6.3 -37.4°
Reaches altitude 10° 19:23:36 10° 12° (NNE) 2,458 5.3 -37.9°
Enters shadow 19:23:43 10° 12° (NNE) 2,427 5.3 -37.9°
